Weather History for Huntingburg, IN

Change the Weather History Date:

Friday, May 4, 2012

  Actual Average Record
Temperature  
Mean Temperature 74 °F -  
Max Temperature 84 °F 71 °F 84 °F (2001)
Min Temperature 64 °F 51 °F 33 °F (2005)
Cooling Degree Days 9    
Growing Degree Days 24 (Base 50)    
Moisture  
Dew Point 65 °F    
Average Humidity 84    
Maximum Humidity 94    
Minimum Humidity 62    
Precipitation  
Precipitation 0.19 in - - ()
Sea Level Pressure  
Sea Level Pressure 29.98 in    
Wind  
Wind Speed 7 mph (South)    
Max Wind Speed 24 mph    
Max Gust Speed 29 mph    
Visibility 10 miles    
Events Thunderstorm    
Averages and records for this station are not official NWS values.
T = Trace of Precipitation, MM = Missing Value Source: NWS Daily Summary

Daily Weather History Graph

Daily Weather History Graph

Search for Another Location

Airport:

Trip Planner

Search our weather history database for the weather conditions in past years. The results will help you decide how hot, cold, wet, or windy it might be!

Date:

Astronomy

May. 04, 2012 Rise Set
Actual Time 6:47 AM EDT 8:42 PM EDT
Civil Twilight 6:18 AM EDT 9:11 PM EDT
Nautical Twilight 5:43 AM EDT 9:46 PM EDT
Astronomical Twilight 5:06 AM EDT 10:23 PM EDT
Moon 7:20 PM EDT (5/4) 5:26 AM EDT (5/4)
Length of Visible Light 14h 52m
Length of Day
13h 55m
Waxing Gibbous, 97% of the Moon is Illuminated
May 4
Waxing Gibbous
May 5
Full
May 12
Last Quarter
May 20
New
May 28
First Quarter

Hourly Weather History & Observations

Time (EDT) Temp. Heat Index Dew Point Humidity Pressure Visibility Wind Dir Wind Speed Gust Speed Precip Events Conditions
12:15 AM 68.0 °F - 62.6 °F 83% 30.01 in 10.0 mi South 5.8 mph - N/A   Clear
12:35 AM 68.0 °F - 62.6 °F 83% 30.01 in 10.0 mi South 6.9 mph - N/A   Clear
12:55 AM 66.2 °F - 62.6 °F 88% 30.02 in 10.0 mi South 5.8 mph - N/A   Clear
1:15 AM 66.2 °F - 62.6 °F 88% 30.01 in 10.0 mi South 4.6 mph - N/A   Clear
1:35 AM 66.2 °F - 62.6 °F 88% 30.00 in 10.0 mi SSE 4.6 mph - N/A   Clear
1:55 AM 66.2 °F - 62.6 °F 88% 30.00 in 10.0 mi SSE 4.6 mph - N/A   Clear
2:15 AM 66.2 °F - 62.6 °F 88% 30.00 in 10.0 mi SSE 4.6 mph - N/A   Clear
2:35 AM 66.2 °F - 62.6 °F 88% 30.01 in 10.0 mi SSE 3.5 mph - N/A   Clear
2:55 AM 66.2 °F - 62.6 °F 88% 30.02 in 10.0 mi SSE 3.5 mph - N/A   Partly Cloudy
3:15 AM 66.2 °F - 62.6 °F 88% 30.02 in 8.0 mi South 3.5 mph - N/A   Scattered Clouds
3:35 AM 66.2 °F - 62.6 °F 88% 30.02 in 10.0 mi South 4.6 mph - N/A   Partly Cloudy
3:55 AM 66.2 °F - 62.6 °F 88% 30.02 in 10.0 mi South 5.8 mph - N/A   Scattered Clouds
4:15 AM 66.2 °F - 62.6 °F 88% 30.01 in 10.0 mi South 9.2 mph - N/A   Partly Cloudy
4:35 AM 66.2 °F - 62.6 °F 88% 30.02 in 10.0 mi South 6.9 mph - N/A   Partly Cloudy
4:55 AM 66.2 °F - 62.6 °F 88% 30.01 in 10.0 mi South 5.8 mph - N/A   Scattered Clouds
5:15 AM 66.2 °F - 62.6 °F 88% 30.01 in 10.0 mi South 5.8 mph - N/A   Partly Cloudy
5:35 AM 66.2 °F - 62.6 °F 88% 30.01 in 10.0 mi South 5.8 mph - N/A   Partly Cloudy
5:55 AM 66.2 °F - 62.6 °F 88% 30.01 in 10.0 mi South 4.6 mph - N/A   Scattered Clouds
6:15 AM 66.2 °F - 62.6 °F 88% 30.01 in 10.0 mi SSE 5.8 mph - N/A   Partly Cloudy
6:35 AM 64.4 °F - 62.6 °F 94% 30.02 in 10.0 mi SSE 5.8 mph - N/A   Partly Cloudy
6:55 AM 64.4 °F - 62.6 °F 94% 30.01 in 9.0 mi SSE 5.8 mph - N/A   Partly Cloudy
7:15 AM 64.4 °F - 62.6 °F 94% 30.02 in 9.0 mi South 6.9 mph - N/A   Clear
7:35 AM 66.2 °F - 62.6 °F 88% 30.04 in 8.0 mi South 6.9 mph - N/A   Clear
7:55 AM 66.2 °F - 62.6 °F 88% 30.03 in 9.0 mi South 4.6 mph - N/A   Partly Cloudy
8:15 AM 66.2 °F - 64.4 °F 94% 30.04 in 9.0 mi South 4.6 mph - N/A   Mostly Cloudy
8:35 AM 66.2 °F - 64.4 °F 94% 30.03 in 10.0 mi South 4.6 mph - N/A   Scattered Clouds
8:55 AM 68.0 °F - 64.4 °F 88% 30.01 in 10.0 mi South 8.1 mph - N/A   Partly Cloudy
9:15 AM 69.8 °F - 66.2 °F 88% 30.02 in 10.0 mi SSW 6.9 mph - N/A   Scattered Clouds
9:35 AM 71.6 °F - 66.2 °F 83% 30.02 in 10.0 mi SSW 10.4 mph - N/A   Mostly Cloudy
9:55 AM 73.4 °F - 66.2 °F 78% 30.03 in 10.0 mi SW 11.5 mph - N/A   Scattered Clouds
10:15 AM 73.4 °F - 66.2 °F 78% 30.04 in 10.0 mi SW 8.1 mph - N/A   Scattered Clouds
10:35 AM 73.4 °F - 66.2 °F 78% 30.05 in 10.0 mi WSW 11.5 mph - N/A   Mostly Cloudy
10:55 AM 73.4 °F - 66.2 °F 78% 30.05 in 10.0 mi SW 9.2 mph - N/A   Mostly Cloudy
11:15 AM 73.4 °F - 66.2 °F 78% 30.05 in 10.0 mi WSW 9.2 mph - N/A   Mostly Cloudy
11:35 AM 75.2 °F - 66.2 °F 73% 30.03 in 10.0 mi South 8.1 mph - N/A   Mostly Cloudy
11:55 AM 77.0 °F - 68.0 °F 74% 30.03 in 10.0 mi SW 9.2 mph - N/A   Mostly Cloudy
12:15 PM 78.8 °F - 68.0 °F 69% 30.02 in 10.0 mi SSW 8.1 mph - N/A   Mostly Cloudy
12:35 PM 78.8 °F - 69.8 °F 74% 30.01 in 10.0 mi SW 6.9 mph 16.1 mph N/A   Scattered Clouds
12:55 PM 78.8 °F - 69.8 °F 74% 30.01 in 10.0 mi SSW 11.5 mph - N/A   Scattered Clouds
1:15 PM 78.8 °F - 69.8 °F 74% 30.00 in 10.0 mi SW 13.8 mph 17.3 mph N/A   Scattered Clouds
1:35 PM 80.6 °F 83.9 °F 69.8 °F 70% 29.99 in 10.0 mi SW 11.5 mph 18.4 mph N/A   Partly Cloudy
1:55 PM 80.6 °F 83.9 °F 69.8 °F 70% 29.99 in 10.0 mi WSW 11.5 mph 18.4 mph N/A   Scattered Clouds
2:15 PM 82.4 °F 86.3 °F 69.8 °F 66% 29.99 in 10.0 mi SW 13.8 mph - N/A   Scattered Clouds
2:35 PM 82.4 °F 86.3 °F 69.8 °F 66% 29.96 in 10.0 mi SW 12.7 mph 20.7 mph N/A   Scattered Clouds
2:55 PM 84.2 °F 88.4 °F 69.8 °F 62% 29.94 in 10.0 mi SW 13.8 mph 18.4 mph N/A   Scattered Clouds
3:35 PM 80.6 °F 83.2 °F 68.0 °F 65% 30.00 in 10.0 mi WNW 17.3 mph - N/A Thunderstorm Thunderstorm
3:55 PM 66.2 °F - 59.0 °F 78% 29.95 in 10.0 mi WSW 24.2 mph 28.8 mph 0.16 in Thunderstorm Thunderstorm
4:15 PM 66.2 °F - 59.0 °F 78% 29.91 in 8.0 mi ESE 6.9 mph 19.6 mph 0.03 in Thunderstorm Scattered Clouds
4:35 PM 66.2 °F - 60.8 °F 83% 29.90 in 10.0 mi NNE 12.7 mph - 0.03 in Thunderstorm Thunderstorm
5:15 PM 66.2 °F - 62.6 °F 88% 29.93 in 10.0 mi Calm Calm - N/A   Partly Cloudy
5:35 PM 66.2 °F - 62.6 °F 88% 29.91 in 10.0 mi SSE 4.6 mph - N/A   Clear
5:55 PM 68.0 °F - 62.6 °F 83% 29.91 in 10.0 mi Calm Calm - N/A   Clear
6:15 PM 69.8 °F - 64.4 °F 83% 29.91 in 10.0 mi North 3.5 mph - N/A   Clear
6:35 PM 69.8 °F - 66.2 °F 88% 29.91 in 10.0 mi NNE 3.5 mph - N/A   Clear
6:55 PM 69.8 °F - 64.4 °F 83% 29.91 in 10.0 mi North 3.5 mph - N/A   Clear
7:15 PM 69.8 °F - 64.4 °F 83% 29.92 in 10.0 mi NNE 5.8 mph - N/A   Partly Cloudy
7:35 PM 69.8 °F - 64.4 °F 83% 29.92 in 10.0 mi NE 3.5 mph - N/A   Scattered Clouds
8:15 PM 69.8 °F - 64.4 °F 83% 29.93 in 10.0 mi NE 5.8 mph - N/A   Clear
8:35 PM 68.0 °F - 64.4 °F 88% 29.92 in 10.0 mi East 3.5 mph - N/A   Clear
8:55 PM 68.0 °F - 64.4 °F 88% 29.91 in 10.0 mi East 4.6 mph - N/A   Clear
9:15 PM 66.2 °F - 62.6 °F 88% 29.90 in 10.0 mi East 3.5 mph - N/A   Clear
9:35 PM 66.2 °F - 62.6 °F 88% 29.90 in 10.0 mi Calm Calm - N/A   Clear
9:55 PM 66.2 °F - 62.6 °F 88% 29.89 in 10.0 mi ENE 3.5 mph - N/A   Clear
10:15 PM 66.2 °F - 62.6 °F 88% 29.90 in 10.0 mi Calm Calm - N/A   Clear
10:35 PM 68.0 °F - 64.4 °F 88% 29.88 in 10.0 mi SSE 5.8 mph - N/A Thunderstorm Partly Cloudy
10:55 PM 68.0 °F - 66.2 °F 94% 29.90 in 10.0 mi North 11.5 mph - N/A Thunderstorm Clear
11:15 PM 73.4 °F - 69.8 °F 88% 29.92 in 10.0 mi NW 15.0 mph 18.4 mph N/A Thunderstorm Thunderstorm
11:55 PM 69.8 °F - 66.2 °F 88% 29.93 in 10.0 mi North 6.9 mph - N/A Thunderstorm Partly Cloudy